Regional Weather Roundup
Issued by NWS

Home | Current Version | Previous Version | Graphics & Text | Print | Product List | Glossary Off
Versions: 1 2 3 4 5 6 7 8 9 10 11 12 13 14 15 16 17 18 19 20 21 22 23 24 25 26 27 28 29 30 31 32 33 34 35 36 37 38 39 40 41 42 43 44 45 46 47 48 49 50

000
ASUS43 KIND 282309
RWRIN

WEATHER ROUNDUP FOR INDIANA
NATIONAL WEATHER SERVICE INDIANAPOLIS IN
600 PM EST FRI NOV 28 2014

NOTE: "FAIR" INDICATES FEW OR NO CLOUDS BELOW 12,000 FEET WITH NO
SIGNIFICANT WEATHER AND/OR OBSTRUCTIONS TO VISIBILITY.

* - STATION DOES NOT REPORT WEATHER SUCH AS PRECIPITATION OR FOG.

+ - STATION NOT QUALITY CONTROLLED BY THE NATIONAL WEATHER SERVICE.
    USE DATA WITH CAUTION...ESPECIALLY DEWPOINT AND RELATIVE
    HUMIDITY OBSERVATIONS.

INZ001>003-010>013-019-020-290000-
NORTHWEST INDIANA

CITY           SKY/WX    TMP DP  RH WIND       PRES   REMARKS
GARY /AIRPORT/ MOCLDY    32  23  69 S16       30.03R WCI  21
KNOX *+        CLOUDY    30  21  68 S13       30.04R WCI  20
LA PORTE +     CLOUDY    31  23  70 S9        30.04S WCI  23
MICHIGAN CITY+ CLOUDY    30  19  64 S8G16     30.04S WCI  23
MONTICELLO +   MOCLDY    32  23  70 S8        30.04S WCI  25
RENSSELAER +   CLOUDY    32  28  86 SE10      30.04R WCI  24
VALPARAISO     CLOUDY    30  21  69 S12       30.04R WCI  20

$$

LMZ046-743>745-290000-
SOUTHERN LAKE MICHIGAN

STATION/POSITION TIME  TEMP WIND        PRES
                       AIR  DIR/SP/G
                 (UTC) (F)  (DEG/KT/KT) (MB)
MICHIGAN CITY    2300   30  140/ 13/ 19   N/A

$$

INZ004-005-014>016-021>024-290000-
NORTH CENTRAL INDIANA

CITY           SKY/WX    TMP DP  RH WIND       PRES   REMARKS
GOSHEN         CLOUDY    29  20  69 S14       30.06S WCI  18
LOGANSPORT +   CLOUDY    30  23  74 SE13      30.07S WCI  20
PERU/GRISSOM   CLOUDY    30  24  78 S15       30.06S WCI  19
ROCHESTER +    CLOUDY    32  23  69 S12       30.07S WCI  23
SOUTH BEND     CLOUDY    29  20  69 S15       30.05S WCI  18
WARSAW +       CLOUDY    30  21  69 S7        30.07R WCI  23

$$

INZ006>009-017-018-025>027-290000-
NORTHEAST INDIANA

CITY           SKY/WX    TMP DP  RH WIND       PRES   REMARKS
ANGOLA *+      MOCLDY    27  19  74 SE8       30.08S WCI  18
AUBURN +       MOCLDY    30  21  69 SE7       30.10S WCI  23
FORT WAYNE     CLOUDY    30  19  63 SE9       30.10F WCI  22
HUNTINGTON +   CLOUDY    31  20  64 S8        30.08S WCI  23

$$

INZ028-029-035-036-043>045-051>053-290000-
WEST CENTRAL INDIANA

CITY           SKY/WX    TMP DP  RH WIND       PRES   REMARKS
CRAWFORDSVL +  PTCLDY    30  23  74 SE13      30.04F WCI  20
GREENCASTLE +  CLEAR     32  25  74 SE9       30.07F WCI  24
LAFAYETTE      PTCLDY    33  23  66 S10       30.05R WCI  25
TERRE HAUTE    PTCLDY    36  26  67 S14       30.06F

$$

INZ030>032-037>040-046>048-054>057-064-065-290000-
CENTRAL INDIANA

CITY           SKY/WX    TMP DP  RH WIND       PRES   REMARKS
CP ATTERBURY + CLEAR     34  23  64 S10       30.11F WCI  26
COLUMBUS       CLEAR     34  21  60 S12       30.12F WCI  25
FRANKFORT +    PTCLDY    32  24  74 SE12G17   30.06S WCI  23
INDIANAPOLIS   MOCLDY    32  21  64 SE15      30.07F WCI  22
-EAGLE CREEK   PTCLDY    32  21  64 SE12G17   30.07F WCI  23
KOKOMO *+      CLOUDY    30  21  69 S15       30.07S WCI  19
MARION +         N/A     31  20  64 S13       30.08F WCI  21
MT COMFORT *+  MOCLDY    32  14  47 S13       30.09F WCI  22
SHELBYVILLE    PTCLDY    34  23  64 S17       30.11F WCI  23
ZIONSVILLE +   PTCLDY    32  21  64 S15       30.06F WCI  22

$$

INZ033-034-041-042-049-050-058-059-290000-
EAST CENTRAL INDIANA

CITY           SKY/WX    TMP DP  RH WIND       PRES   REMARKS
MUNCIE         CLOUDY    32  17  54 S12G21    30.08F WCI  23

$$

INZ060-061-067>069-081>083-085>088-290000-
SOUTHWEST INDIANA

CITY           SKY/WX    TMP DP  RH WIND       PRES   REMARKS
EVANSVILLE     CLEAR     42  26  53 S10       30.11F
HUNTINGBURG *+ CLEAR     37  25  60 S9        30.13S
WASHINGTON +   CLEAR     37  28  71 S12       30.10F

$$

INZ062-063-066-070>080-084-089>092-290000-
SOUTH CENTRAL AND SOUTHEAST INDIANA

CITY           SKY/WX    TMP DP  RH WIND       PRES   REMARKS
BLOOMINGTON    PTCLDY    35  24  64 S12       30.08F WCI  27

$$




USA.gov is the U.S. government's official web portal to all federal, state and local government web resources and services.